ROMMA est une association bénévole à but non lucratif. Votre soutien est indispensable : ADHERER à ROMMA ou FAIRE un DON

Taninges - (74, Haute-Savoie)

Vallée du Giffre (635 m)   Longitude: 06° 35' 38" E   Latitude: 46° 06' 21" N Station romma n°98
 

Détail journalier du     <<     >>

Température Precipitation Humidité Pression Vent Dir Rafale Dir. rafale Ensol.
Heure (°C) (mm) (%) (hPa) (km/h) (km/h) (min)
01:00 12.409210151SSO8SO0
02:00 11.409310151O5ONO0
03:00 10.009310151O6S0
04:00 9.709410151SSO5S0
05:00 9.1095101505SSO0
06:00 9.309510151SSO5ONO0
07:00 9.709610151OSO6ENE0
08:00 10.909610151ENE3ENE5
09:00 14.50.28410151SE5S40
10:00 18.606810152SO6SO50
11:00 21.506210142SSE6SSO40
12:00 25.304810133SO8OSO60
13:00 26.104510137SO18SO55
14:00 28.003210125OSO16SO45
15:00 28.803710126OSO15OSO45
16:00 28.703110127OSO18O40
17:00 29.103410127OSO23O5
18:00 29.803410116NO18NO45
19:00 27.005010114SO19SO35
20:00 24.904710112ENE10ENE0
21:00 21.706210122E8NE0
22:00 18.907310121ENE8NE0
23:00 17.1081101205SE0
minuit 16.208510121SE5SSE0

Graphique du 17-08-2019

 

Serveur OMMA